This demonstration page uses our WeatherBlox Daily Observations layout. Learn more.

Left ArrowRight Arrow

41.86663, -103.66717

Hourly Observations for December 8, 2020

Temp ( °F °C ) Dew Point ( °F °C ) Humidity (%) Winds ( mph kmh ) Pressure ( in mb ) Visibility ( mi km ) Precip ( " mm )
12:53 am 00:53 Clear 26 -3.3 8 -13.3 46 46 NW 9 15 30.28 1025 10 16 0.00 0.00
1:53 am 01:53 Clear 26 -3.3 9 -12.8 48 48 NW 8 13 30.29 1026 10 16 0.00 0.00
2:53 am 02:53 Clear 26 -3.3 9 -12.8 48 48 NW 7 11 30.28 1025 10 16 0.00 0.00
3:53 am 03:53 Clear 26 -3.3 9 -12.8 48 48 NNW 7 11 30.27 1025 10 16 0.00 0.00
4:53 am 04:53 Clear 29 -1.7 9 -12.8 43 43 NW 12 19 30.29 1026 10 16 0.00 0.00
5:53 am 05:53 Clear 29 -1.7 9 -12.8 43 43 NW 9 15 30.31 1026 10 16 0.00 0.00
6:53 am 06:53 Clear 27 -2.8 9 -12.8 46 46 N 6 9 30.33 1027 10 16 0.00 0.00
7:53 am 07:53 Sunny 27 -2.8 10 -12.2 49 49 WNW 8 13 30.32 1027 10 16 0.00 0.00
8:53 am 08:53 Sunny 35 1.7 11 -11.7 37 37 WNW 6 9 30.29 1026 10 16 0.00 0.00
9:53 am 09:53 Sunny 42 5.6 11 -11.7 28 28 NW 7 11 30.28 1026 10 16 0.00 0.00
10:53 am 10:53 Sunny 53 11.7 10 -12.2 18 18 WNW 12 19 30.23 1024 10 16 0.00 0.00
11:53 am 11:53 Sunny 56 13.3 10 -12.2 16 16 NW 12 19 30.19 1022 10 16 0.00 0.00
12:53 pm 12:53 Sunny 62 16.7 10 -12.2 13 13 WNW 12 19 30.14 1021 10 16 0.00 0.00
1:53 pm 13:53 Sunny 66 18.9 5 -15 9 9 WNW 17 28 30.10 1019 10 16 0.00 0.00
2:53 pm 14:53 Sunny 66 18.9 5 -15 9 9 W 14 22 30.09 1019 10 16 0.00 0.00
3:53 pm 15:53 Sunny 63 17.2 4 -15.6 9 9 W 10 17 30.11 1020 10 16 0.00 0.00
4:53 pm 16:53 Clear 55 12.8 4 -15.6 12 12 W 7 11 30.14 1021 10 16 0.00 0.00
5:53 pm 17:53 Clear 47 8.3 6 -14.4 19 19 WNW 9 15 30.17 1022 10 16 0.00 0.00
6:53 pm 18:53 Clear 41 5 7 -13.9 24 24 W 7 11 30.20 1023 10 16 0.00 0.00
7:53 pm 19:53 Clear 37 2.8 7 -13.9 28 28 NW 7 11 30.22 1024 10 16 0.00 0.00
8:53 pm 20:53 Clear 42 5.6 8 -13.3 24 24 WNW 9 15 30.20 1023 10 16 0.00 0.00
9:53 pm 21:53 Clear 39 3.9 8 -13.3 28 28 NW 8 13 30.19 1022 10 16 0.00 0.00
10:53 pm 22:53 Clear 38 3.3 8 -13.3 29 29 NW 8 13 30.16 1022 10 16 0.00 0.00
11:53 pm 23:53 Clear 35 1.7 8 -13.3 32 32 NW 7 11 30.16 1022 10 16 0.00 0.00

Powered by AerisWeather